Voltar ao catálogo

FENGYUN 1C DEB

AtivoSSO
NORAD 31294·DEBRIS·🇨🇳 China

Lançado May 10, 1999 de Taiyuan Satellite Launch Center

Loading…

Próximas Passagens (próximas 24 horas)

TLE

AtualizadoSource: Space-Track

Época: Sep 14, 2026, 04:32 UTC

1 31294U 99025BPC 26257.18949800  .00000442  00000-0  23558-3 0  9991
2 31294  98.5608 246.6988 0098020 269.2290  89.7653 14.15741002  7504

Acompanhe FENGYUN 1C DEB em tempo real com AllMySat

Download on the App Store